Location: Landunvez
(48.5347°N, 4.7254°W)
Time: 01:28:44
(UTC+00:00)

Daily predictions for brighter satellites

Satellite Brightness Start Highest point End
(mag) Time Altitude Azimuth Time Altitude Azimuth Time Altitude Azimuth
ATLAS CENTAUR R/B 4.0 00:01:40 10° NNW 00:02:47 13° NNE 00:04:08 10° NE
Cosmos 292 Rocket 3.7 00:03:39 47° S 00:04:58 72° ESE 00:09:49 10° NNE
STARLINK-1104 3.4 00:03:18 10° WNW 00:07:27 76° SSW 00:08:12 56° SE
STARLINK-1230 3.9 00:04:23 10° WSW 00:08:31 66° NNW 00:12:39 10° ENE
S3M 3.9 00:03:48 10° N 00:09:57 80° W 00:12:36 37° S
Cosmos 1655 Rocket 3.9 00:07:30 36° S 00:10:14 87° E 00:16:32 10° N
Cosmos 1726 2.1 00:06:48 10° N 00:10:29 69° E 00:10:54 62° ESE
STARLINK-1235 4.4 00:07:43 10° WNW 00:10:39 37° N 00:13:34 10° E
Cosmos 1544 Rocket 4.2 00:06:43 10° NNW 00:10:48 41° W 00:11:44 36° SW
STARLINK-1187 4.5 00:08:08 10° WNW 00:11:02 36° N 00:13:57 10° ENE
Meteor 2-8 Rocket 4.4 00:05:29 10° NNW 00:11:37 78° W 00:14:13 37° S
GEOS 3 Rocket 4.3 00:07:39 12° ESE 00:12:15 53° NE 00:17:24 10° NW
STARLINK-1191 4.5 00:09:29 10° WNW 00:12:24 35° N 00:15:18 10° ENE
STARLINK-1144 3.5 00:08:17 10° WNW 00:12:25 71° SSW 00:13:00 60° SSE
COSMOS 2455 3.9 00:11:40 25° SE 00:13:10 28° ESE 00:18:13 10° NE
SL-27 R/B 3.0 00:09:44 10° NNW 00:13:10 46° WSW 00:13:10 46° WSW
STARLINK-1221 4.5 00:10:21 10° WNW 00:13:16 36° N 00:16:10 10° ENE
STARLINK-1243 4.0 00:09:23 10° W 00:13:30 63° NNW 00:17:38 10° ENE
Cosmos 2228 4.1 00:10:07 10° N 00:14:06 36° ENE 00:15:32 28° ESE
STARLINK-1222 4.5 00:11:15 10° WNW 00:14:10 36° N 00:17:04 10° ENE
Cosmos 2263 4.2 00:12:25 41° S 00:14:21 67° ESE 00:19:56 10° NNE
STARLINK-1214 4.5 00:12:10 10° WNW 00:15:05 36° N 00:17:59 10° ENE
STARLINK-1103 3.5 00:13:16 10° WNW 00:17:23 67° SSW 00:17:46 62° S
STARLINK-1236 4.1 00:14:23 10° W 00:18:30 61° NNW 00:22:37 10° ENE
Cosmos 1953 2.2 00:14:48 10° N 00:18:50 83° W 00:19:26 63° S
Cosmos 1340 Rocket 2.8 00:16:20 10° N 00:20:23 77° ENE 00:21:08 57° SSE
Cosmos 1271 Rocket 3.1 00:21:40 46° WSW 00:22:21 54° WNW 00:26:11 10° N
STARLINK-1101 3.5 00:18:15 10° WNW 00:22:21 62° SSW 00:22:33 61° SSW
Cosmos 1461 4.4 00:19:23 13° WSW 00:22:44 34° NW 00:26:47 10° NNE
COSMOS 2487 3.2 00:23:16 10° N 00:26:37 44° ENE 00:27:18 38° E
Cosmos 1992 Rocket 3.9 00:25:15 43° S 00:26:56 75° ESE 00:32:09 10° NNE
Cosmos 1758 4.3 00:23:32 10° NNW 00:27:13 35° W 00:27:48 33° WSW
STARLINK-1102 3.6 00:23:16 10° WNW 00:27:20 58° SSW 00:27:20 58° SSW
Cosmos 1833 4.1 00:21:40 10° NNW 00:27:21 86° WSW 00:29:45 36° SSE
STARLINK-1269 4.2 00:24:23 10° W 00:28:28 56° NNW 00:32:34 10° ENE
Cosmos 1707 3.3 00:29:05 43° WSW 00:29:50 49° WNW 00:33:39 10° N
STARLINK-1111 3.7 00:28:14 10° WNW 00:32:07 54° SW 00:32:07 54° SW
STARLINK-1200 4.3 00:29:24 10° W 00:33:29 55° NNW 00:37:34 10° ENE
USA 215 4.1 00:33:06 28° SW 00:34:12 30° SW 00:39:51 10° WNW
Cosmos 1626 4.0 00:34:31 19° ESE 00:35:15 20° E 00:38:02 10° NE
Cosmos 1656 Rocket 3.7 00:33:51 40° S 00:35:54 70° ESE 00:41:29 10° NNE
STARLINK-1073 3.9 00:33:15 10° WNW 00:36:54 49° SW 00:36:54 49° SW
YAOGAN 11 4.3 00:36:27 46° SW 00:37:20 56° WSW 00:41:38 10° NNW
In-Cosmos 22 4.0 00:35:37 41° S 00:37:33 90° W 00:42:52 10° NNE
Cosmos 1606 Rocket 3.7 00:33:15 10° N 00:37:35 65° E 00:38:48 43° SE
STARLINK-1192 4.4 00:34:25 10° W 00:38:29 53° NNW 00:42:34 10° ENE
FALCON 9 R/B 3.9 00:38:25 26° SSE 00:38:56 26° SSE 00:49:46 10° E
STARLINK-1121 4.0 00:38:13 10° WNW 00:41:39 44° WSW 00:41:39 44° WSW
EO 1 Delta rocket 4.3 00:35:53 10° N 00:42:29 87° ESE 00:44:41 38° S
Meteor 1-16 Rocket 4.2 00:37:44 10° NNW 00:43:20 68° W 00:45:20 39° SSW
STARLINK-1244 4.4 00:39:25 10° W 00:43:28 51° NNW 00:47:32 10° ENE
CZ-4 R/B 3.8 00:39:03 10° NNE 00:43:55 73° ESE 00:45:23 44° S
APEX 4.4 00:42:04 31° SSW 00:45:26 83° WNW 00:51:04 10° NNE
Cosmos 2297 Rocket 4.3 00:41:52 10° N 00:46:25 24° NE 00:50:56 10° E
Cosmos 2292 Rocket 3.6 00:45:34 45° SW 00:46:40 62° W 00:50:20 10° N
STARLINK-1106 4.2 00:43:13 10° WNW 00:46:27 39° WSW 00:46:27 39° WSW
STARLINK-1138 4.5 00:44:25 10° W 00:48:28 50° N 00:52:31 10° ENE
SL-4 R/B 3.1 00:49:12 34° SE 00:49:12 34° SE 00:53:30 10° ENE
NOSS 3-2 (C) 4.1 00:42:22 10° NW 00:49:46 60° WSW 00:54:29 27° SSE
STARLINK-1112 4.4 00:48:14 10° WNW 00:51:14 35° WSW 00:51:14 35° WSW
PSLV R/B 3.6 00:47:55 10° NNE 00:52:34 79° ESE 00:53:53 46° S
Cosmos 1674 2.5 00:53:21 65° S 00:53:51 90° ESE 00:57:39 10° N
Aureole 3 3.4 00:51:22 10° NNW 00:54:58 45° W 00:55:01 45° W
ATLAS CENTAUR R/B 2.1 00:56:56 37° SE 00:57:29 39° ESE 01:01:24 10° NE
Cosmos 1777 Rocket 4.3 00:53:31 10° NNW 00:58:44 65° ENE 01:01:54 24° SE
Timation 2 Rocket 4.4 00:52:24 10° NNW 00:58:47 61° NE 01:04:30 12° SE
NOSS 3-4 (A) 3.4 00:57:31 35° SSW 01:00:11 74° SE 01:06:33 10° NE
NOSS 3-4 (C) 3.4 00:57:37 35° SSW 01:00:17 73° SE 01:06:40 10° NE
SL-16 R/B 3.6 00:56:14 10° SE 01:01:54 41° ENE 01:07:38 10° N
Cosmos 2266 Rocket 4.4 01:00:43 29° SW 01:03:40 53° WNW 01:09:37 10° N
ATLAS 3B R/B 2.7 00:58:57 10° NW 01:05:46 88° NE 01:12:42 10° SE
CENTAUR R/B 3.3 01:01:43 10° NW 01:09:34 55° WSW 01:14:47 25° S
BREEZE-M DEB (TANK) 3.0 01:12:38 23° E 01:12:38 23° E 01:13:40 10° E
Cosmos 1867 3.6 01:08:55 10° NW 01:14:19 63° WSW 01:16:44 32° S
Cosmos 1908 3.6 01:11:02 10° NNW 01:14:42 45° W 01:15:09 42° WSW
Cosmos 1892 Rocket 3.5 01:14:51 44° S 01:16:14 86° E 01:20:40 10° N
RESURS DK-1 3.2 01:19:17 32° SE 01:20:15 37° ESE 01:24:06 10° NE
STARLINK-1218 4.5 01:17:30 10° WNW 01:21:33 51° NNE 01:25:37 10° E
Cosmos 2227 Rocket 3.8 01:17:10 10° NNW 01:22:21 34° NE 01:27:29 10° ESE
Cosmos 1356 Rocket 4.3 01:19:24 10° N 01:23:22 44° ENE 01:25:49 21° SE
Meteor 1-24 Rocket 3.6 01:22:03 34° S 01:24:27 78° E 01:29:52 10° NNE
Cosmos 2369 Rocket 3.5 01:20:44 14° WSW 01:25:02 33° NW 01:30:08 10° NNE
Cosmos 1726 Rocket 3.8 01:21:28 10° NNW 01:25:40 50° W 01:26:45 39° SW
STARLINK-1254 4.4 01:22:29 10° WNW 01:26:34 52° NNE 01:30:38 10° E
Meteor 2-14 Rocket 4.4 01:24:00 31° S 01:27:06 89° W 01:33:16 10° N
CZ-2D R/B 3.2 01:22:24 10° NNE 01:27:15 36° E 01:30:15 20° SSE
Helios 1B rocket 3.2 01:23:51 10° N 01:27:47 43° WNW 01:29:11 31° WSW
ATLAS 2AS CENTAUR R/B 3.1 01:23:17 22° SW 01:28:58 79° NW 01:36:56 10° NE
ADEOS II 4.3 01:26:18 10° NE 01:29:32 16° E 01:32:46 10° SE
STARLINK-1231 4.4 01:27:30 10° WNW 01:31:35 54° NNE 01:35:39 10° E
CZ-4C R/B 3.9 01:30:46 25° SE 01:33:06 61° ENE 01:37:24 10° N
STARLINK-1228 2.9 01:30:08 10° WNW 01:33:29 85° SSW 01:36:50 10° ESE
STARLINK-1234 2.7 01:31:34 10° WNW 01:34:42 87° SW 01:37:03 16° ESE
Cosmos 1943 Rocket 4.1 01:31:32 10° W 01:35:53 23° NW 01:40:15 10° N
STARLINK-1212 2.9 01:32:57 10° WNW 01:36:04 77° NNE 01:39:09 10° ESE
DELTA 2 DEB (DPAF) 4.1 01:34:10 32° SSE 01:36:12 87° WSW 01:40:42 10° NNW
STARLINK-1105 2.9 01:33:25 10° WNW 01:36:31 77° NNE 01:39:37 10° ESE
STARLINK-1232 4.3 01:32:29 10° WNW 01:36:35 56° NNE 01:40:40 10° E
STARLINK-1209 2.7 01:33:50 10° WNW 01:37:00 81° SSW 01:38:42 25° ESE
Resurs 1-4 Rocket 2.9 01:32:00 10° NNE 01:37:05 44° E 01:40:11 22° SSE
STARLINK-1247 2.9 01:34:19 10° WNW 01:37:27 78° NNE 01:40:35 10° ESE
STARLINK-1227 2.9 01:34:47 10° WNW 01:37:54 79° NNE 01:40:59 10° ESE
Meteor 2-5 Rocket 3.8 01:35:17 31° SSW 01:37:56 64° WNW 01:43:30 10° N
STARLINK-1226 2.9 01:35:38 10° WNW 01:38:45 80° NNE 01:41:53 10° ESE
STARLINK-52 4.1 01:39:41 30° SE 01:39:41 30° SE 01:42:13 10° ENE
STARLINK-1215 2.9 01:36:34 10° WNW 01:39:42 81° NNE 01:42:50 10° ESE
STARLINK-1217 2.8 01:38:20 10° WNW 01:41:28 83° NNE 01:44:36 10° ESE
STARLINK-1208 4.2 01:37:27 10° WNW 01:41:33 58° NNE 01:45:39 10° E
STARLINK-1229 2.8 01:39:16 10° WNW 01:42:24 84° NNE 01:45:32 10° ESE
STARLINK-1270 2.8 01:40:07 10° WNW 01:43:16 85° NNE 01:46:23 10° ESE
NPP 4.4 01:39:20 10° NNE 01:44:32 45° E 01:47:57 20° SSE
STARLINK-1189 2.8 01:41:58 10° WNW 01:45:06 87° NNE 01:48:14 10° ESE
STARLINK-1188 2.8 01:42:51 10° WNW 01:45:59 88° NNE 01:49:06 10° ESE
Meteor 1-29 4.0 01:43:16 10° N 01:46:22 33° WNW 01:47:11 29° W
STARLINK-1271 4.2 01:42:27 10° WNW 01:46:34 60° NNE 01:50:40 10° E
STARLINK-1235 2.6 01:43:33 10° WNW 01:46:39 76° SSW 01:49:45 10° ESE
STARLINK-1187 2.7 01:43:58 10° WNW 01:47:04 83° SSW 01:50:10 10° ESE
STARLINK-1191 2.7 01:45:20 10° WNW 01:48:27 89° S 01:51:33 10° ESE
Starlink 7 placeholder 3.9 01:49:43 25° ENE 01:49:43 25° ENE 01:50:43 10° ENE
Lacrosse 4 Rocket 4.4 01:45:50 10° N 01:48:59 19° NE 01:52:05 10° E
STARLINK-1221 2.7 01:46:12 10° WNW 01:49:18 88° SSW 01:52:25 10° ESE
Cosmos 2058 Rocket 3.5 01:45:21 10° NNW 01:49:34 45° W 01:51:01 33° SW
STARLINK-1222 2.7 01:47:06 10° WNW 01:50:12 87° SSW 01:53:19 10° ESE
GEOS 3 Rocket 4.2 01:48:43 30° SSW 01:50:24 37° WSW 01:55:18 10° NW
STARLINK-1214 2.7 01:48:01 10° WNW 01:51:07 85° SSW 01:54:12 10° ESE
Cosmos 2228 4.4 01:48:04 10° NW 01:51:26 23° W 01:52:21 21° WSW
STARLINK-1154 4.1 01:47:26 10° WNW 01:51:34 63° NNE 01:55:41 10° E
SJ 16-02 2.5 01:49:22 10° N 01:53:36 42° ENE 01:57:48 10° SE
CZ-4C R/B 4.1 01:51:00 10° SE 01:53:53 15° ESE 01:57:00 10° ENE
Cosmos 2084 4.2 01:52:18 29° S 01:53:59 42° ESE 01:58:13 10° NE
SL-14 R/B 3.6 01:54:05 35° SW 01:55:21 50° WNW 01:59:08 10° N
SL-08 ROCKET BODY 4.3 01:52:04 25° S 01:55:41 82° E 02:01:34 10° N
STARLINK-1197 4.0 01:52:24 10° WNW 01:56:33 65° NNE 02:00:40 10° ESE
COSMOS 2455 3.1 01:54:47 22° SW 01:58:43 62° NW 02:04:43 10° NNE
Cosmos 1300 3.2 01:55:22 10° NNW 01:59:00 42° W 02:00:00 34° SW
Meteor 2-10 Rocket 4.1 01:55:35 10° N 02:00:54 57° ENE 02:05:58 10° SSE
Okean 1-7 Rocket 4.3 01:59:29 27° SW 02:01:23 42° WNW 02:05:40 10° N
STARLINK-1198 3.9 01:57:22 10° WNW 02:01:31 68° NNE 02:05:39 10° ESE
Cosmos 921 Rocket 2.9 02:00:21 33° SSW 02:02:13 79° WNW 02:06:34 10° NNE
Cosmos 1174 4.4 02:03:35 25° W 02:05:03 39° NW 02:08:37 10° NNE
Cosmos 1709 Rocket 4.3 02:01:48 17° SSE 02:06:31 60° E 02:12:32 10° NNE
STARLINK-1199 3.9 02:02:23 10° WNW 02:06:32 72° NNE 02:10:41 10° ESE
Cosmos 1386 Rocket 4.4 02:02:41 24° S 02:06:34 86° W 02:12:45 10° N
Cosmos 1626 Rocket 3.5 02:06:42 30° SSW 02:08:49 78° W 02:13:11 10° N
STARLINK-60 3.0 02:08:52 32° WSW 02:10:12 77° NNW 02:13:25 10° ENE
Cosmos 1626 3.2 02:09:03 25° WSW 02:10:19 32° WNW 02:13:42 10° N
STARLINK-1210 3.8 02:07:20 10° WNW 02:11:31 75° NNE 02:15:39 10° ESE
STARLINK-1320 4.4 02:14:52 21° SSE 02:15:13 22° SE 02:17:42 10° E
STARLINK-1322 4.4 02:15:11 22° SSE 02:15:33 22° SE 02:18:03 10° E
Cosmos 2219 3.1 02:09:51 10° NNW 02:15:34 82° WSW 02:21:12 10° SSE
STARLINK-1324 4.4 02:15:32 22° SSE 02:15:54 22° SE 02:18:25 10° E
STARLINK-1294 4.4 02:15:47 22° SSE 02:16:11 22° SE 02:18:43 10° E
STARLINK-1219 3.7 02:12:19 10° WNW 02:16:30 79° NNE 02:20:38 10° ESE
STARLINK-1261 4.4 02:16:10 22° SSE 02:16:34 22° SE 02:19:05 10° E
STARLINK-1325 4.4 02:16:30 22° SSE 02:16:56 23° SE 02:19:27 10° E
STARLINK-1333 4.4 02:16:48 22° SSE 02:17:13 23° SE 02:19:45 10° E
STARLINK-1334 4.4 02:17:07 22° SSE 02:17:33 23° SE 02:20:06 10° E
STARLINK-1326 4.4 02:17:28 22° SSE 02:17:54 23° SE 02:20:27 10° E
STARLINK-1323 4.4 02:17:47 22° SSE 02:18:15 23° SE 02:20:48 10° E
STARLINK-1349 4.3 02:18:06 22° SSE 02:18:34 23° SE 02:21:07 10° E
STARLINK-1336 4.3 02:18:28 22° SSE 02:18:56 23° SE 02:21:30 10° E
STARLINK-1331 4.3 02:18:45 22° SSE 02:19:14 23° SE 02:21:48 10° E
Cosmos 1980 Rocket 4.4 02:16:11 10° SE 02:19:29 16° E 02:22:48 10° ENE
STARLINK-1344 4.3 02:19:05 23° SSE 02:19:35 24° SE 02:22:10 10° E
STARLINK-1343 4.3 02:19:25 23° SSE 02:19:55 24° SE 02:22:30 10° E
STARLINK-1346 4.3 02:19:43 23° SSE 02:20:16 24° SE 02:22:53 10° E
STARLINK-1328 4.3 02:20:05 23° SSE 02:20:37 24° SE 02:23:12 10° E
STARLINK-1354 4.3 02:20:22 23° SSE 02:20:55 24° SE 02:23:31 10° E
STARLINK-1347 4.3 02:20:44 23° SSE 02:21:17 24° SE 02:23:54 10° E
STARLINK-1211 3.6 02:17:17 10° WNW 02:21:28 83° NNE 02:25:37 10° ESE
STARLINK-1357 4.3 02:21:02 23° SSE 02:21:35 24° SE 02:24:12 10° E
STARLINK-1335 4.3 02:21:22 23° SSE 02:21:56 25° SE 02:24:33 10° E
STARLINK-1327 4.2 02:21:41 23° SSE 02:22:15 25° SE 02:24:53 10° E
STARLINK-1340 4.2 02:22:01 23° SSE 02:22:37 25° SE 02:25:15 10° E
STARLINK-1356 4.2 02:22:21 23° SSE 02:22:57 25° SE 02:25:35 10° E
STARLINK-1345 4.2 02:22:41 23° SSE 02:23:18 25° SE 02:25:56 10° E
STARLINK-1355 4.2 02:22:59 23° SSE 02:23:37 25° SE 02:26:16 10° E
Cosmos 192 4.5 02:20:35 22° S 02:23:46 71° ESE 02:28:44 10° NNE
STARLINK-1321 4.2 02:23:18 24° SSE 02:23:57 25° SE 02:26:36 10° E
STARLINK-1358 4.2 02:23:39 24° SSE 02:24:18 26° SE 02:26:58 10° E
STARLINK-1332 4.2 02:23:57 24° SSE 02:24:37 26° SE 02:27:17 10° E
STARLINK-1348 4.2 02:24:18 24° SSE 02:24:58 26° SE 02:27:39 10° E
UNK 4.0 02:22:20 23° SSW 02:25:01 51° W 02:29:32 10° NNW
MOZ.5/SAFIR/RUBIN 5/SL-8 4.4 02:22:55 24° SSW 02:25:07 39° W 02:29:29 10° NNW
STARLINK-1330 4.2 02:24:36 24° SSE 02:25:17 26° SE 02:27:58 10° E
Cosmos 220 Rocket 4.2 02:22:56 25° SW 02:25:24 65° WNW 02:29:50 10° NNE
ERS-2 4.3 02:22:29 10° ESE 02:25:35 26° ENE 02:28:41 10° N
STARLINK-1363 4.2 02:24:56 24° SSE 02:25:37 26° SE 02:28:18 10° E
Cosmos 1437 3.8 02:24:54 24° WSW 02:25:44 28° WNW 02:28:25 10° N
STARLINK-1337 4.2 02:25:15 24° SSE 02:25:57 26° SE 02:28:39 10° E
Nadezhda 1 Rocket 4.3 02:20:17 10° NNW 02:26:12 50° W 02:30:28 19° SSW
STARLINK-1342 4.2 02:25:35 24° SSE 02:26:18 27° SE 02:29:00 10° E
STARLINK-1245 3.6 02:22:17 10° WNW 02:26:28 87° NNE 02:30:37 10° ESE
STARLINK-1374 4.5 02:25:26 23° S 02:26:33 27° SE 02:29:35 10° E
STARLINK-1364 4.2 02:25:55 24° SSE 02:26:39 27° SE 02:29:21 10° E
STARLINK-1376 4.1 02:26:15 24° SSE 02:26:59 27° SE 02:29:42 10° E
STARLINK-1360 4.1 02:26:30 24° SSE 02:27:15 27° SE 02:29:58 10° E
STARLINK-1361 4.1 02:26:56 24° SSE 02:27:42 27° SE 02:30:25 10° E
STARLINK-1367 4.1 02:27:10 24° S 02:27:58 28° SE 02:30:43 10° E
STARLINK-1366 4.1 02:27:33 24° SSE 02:28:20 28° SE 02:31:03 10° E
STARLINK-1339 4.4 02:27:27 23° S 02:28:37 28° SE 02:31:41 10° E
SL-4 R/B 2.4 02:24:45 15° WSW 02:28:42 84° NNW 02:33:24 10° ENE
Cosmos 1812 Rocket 3.7 02:24:17 10° NNW 02:28:43 60° W 02:31:37 20° S
AQUA 3.8 02:24:01 10° NNE 02:28:49 85° E 02:32:11 20° SSW
STARLINK-1377 4.4 02:29:28 23° S 02:30:42 29° SE 02:33:49 10° ENE
Cosmos 2297 Rocket 2.1 02:25:26 10° NNW 02:31:06 77° WSW 02:36:44 10° SSE
CZ-4B R/B 3.5 02:26:12 10° NNE 02:31:22 88° W 02:35:12 19° SSW
STARLINK-1233 3.5 02:27:15 10° WNW 02:31:26 89° SSW 02:35:35 10° ESE
STARLINK-1353 4.3 02:31:17 23° S 02:32:34 30° SE 02:35:39 10° ENE
STARLINK-1375 4.3 02:33:04 23° S 02:34:25 31° SE 02:37:32 10° ENE
Cosmos 2082 4.2 02:29:07 10° NNW 02:34:47 64° ENE 02:40:21 10° SE
STARLINK-1204 3.5 02:32:15 10° WNW 02:36:25 84° SSW 02:40:34 10° ESE
ATLAS CENTAUR R/B 2.7 02:33:05 13° WSW 02:36:28 33° NW 02:40:12 10° NNE
STARLINK-1350 4.2 02:35:22 23° S 02:36:48 32° SE 02:39:57 10° ENE
Cosmos 990 Rocket 4.0 02:31:44 10° NNW 02:37:02 88° WSW 02:42:17 10° SSE
FALCON 9 DEB 3.2 02:35:24 26° SW 02:37:09 65° SSE 02:40:35 10° ENE
CBERS-1 4.1 02:33:04 10° NNE 02:38:12 74° ESE 02:42:29 15° S
STARLINK-29 2.9 02:37:00 23° WSW 02:38:52 84° NNW 02:42:04 10° ENE
STARLINK-1352 4.1 02:37:40 23° S 02:39:12 34° SE 02:42:26 10° ENE
STARLINK-1368 4.1 02:39:45 22° SSW 02:41:22 35° SE 02:44:38 10° ENE
STARLINK-1238 3.5 02:37:13 10° WNW 02:41:22 80° SSW 02:45:30 10° ESE
Cosmos 1455 2.1 02:37:43 10° NNW 02:41:28 68° W 02:44:16 17° S
Cosmos 1602 Rocket 4.0 02:39:06 21° SW 02:41:41 46° WNW 02:45:53 10° N
Cosmos 1825 Rocket 3.7 02:38:21 16° S 02:41:48 72° E 02:46:08 10° NNE
STARLINK-1369 4.0 02:41:37 22° SSW 02:43:16 36° SE 02:46:31 10° ENE
ATLAS CENTAUR R/B 2.1 02:42:04 10° WNW 02:44:56 52° SW 02:51:17 10° SE
SL-16 R/B 3.0 02:41:06 17° SSW 02:45:31 41° W 02:51:19 10° NNW
STARLINK-1372 4.0 02:43:57 22° SSW 02:45:44 38° SE 02:49:03 10° ENE
STARLINK-1201 3.5 02:42:13 10° WNW 02:46:22 75° SSW 02:50:29 10° SE
STARLINK-1378 3.9 02:46:05 21° SSW 02:47:57 40° SE 02:51:17 10° ENE
STARLINK-1329 3.9 02:46:35 21° SSW 02:48:28 40° SE 02:51:50 10° ENE
STARLINK-1240 4.4 02:44:28 10° WNW 02:48:32 53° NNE 02:52:36 10° E
STARLINK-1365 3.8 02:47:17 21° SSW 02:49:11 42° SE 02:52:33 10° ENE
GP-B 3.1 02:45:30 10° N 02:49:56 70° W 02:53:37 15° SSW
STARLINK-1379 3.9 02:48:13 21° SSW 02:50:09 41° SE 02:53:31 10° ENE
STARLINK-1362 3.9 02:48:47 21° SSW 02:50:45 42° SE 02:54:07 10° ENE
IRS-1D 3.6 02:45:45 10° NNE 02:51:09 88° W 02:55:45 14° SSW
STARLINK-1206 3.5 02:47:12 10° WNW 02:51:20 70° SSW 02:55:27 10° SE
STARLINK-1373 3.8 02:50:59 20° SSW 02:53:02 43° SE 02:56:26 10° ENE
Cosmos-2242 2.9 02:48:45 10° NNW 02:53:02 74° W 02:57:16 10° S
STARLINK-1216 4.4 02:49:27 10° WNW 02:53:32 55° NNE 02:57:37 10° E
Cosmos 1400 Rocket 3.7 02:50:04 10° N 02:54:07 52° ENE 02:58:09 10° SSE
STARLINK-1390 3.7 02:52:58 20° SSW 02:55:05 45° SE 02:58:30 10° ENE
ATLAS 3B R/B 3.8 02:50:37 10° WNW 02:55:43 23° WSW 02:59:50 14° SSW
STARLINK-1205 3.5 02:52:11 10° WNW 02:56:18 66° SSW 03:00:24 10° SE
RESURS DK-1 3.8 02:55:09 12° WSW 02:58:22 28° NW 03:01:59 10° N
STARLINK-1237 4.3 02:54:26 10° WNW 02:58:32 57° NNE 03:02:37 10° E
Alouette 2 Rocket 4.4 02:54:06 10° NNW 03:00:37 53° W 03:04:51 11° S
SL-08 R/B 3.3 02:56:06 10° SSE 03:00:49 88° W 03:05:29 10° NNW
STARLINK-1218 3.6 02:57:09 10° WNW 03:01:15 61° SSW 03:05:20 10° SE
STARLINK-1202 4.3 02:59:25 10° WNW 03:03:32 59° NNE 03:07:38 10° E
Cosmos 1703 3.3 03:02:09 15° SSW 03:05:24 67° W 03:09:22 10° N
STARLINK-1254 3.6 03:02:09 10° WNW 03:06:14 57° SSW 03:10:17 10° SE
Cosmos 2227 Rocket 2.4 03:01:09 10° NW 03:06:36 49° WSW 03:12:01 10° S
IRS-P3 4.2 03:01:22 10° NNE 03:06:45 90° W 03:12:05 10° SSW
CZ-2D R/B 3.0 03:02:30 10° N 03:07:18 36° WNW 03:11:34 12° SW
Cosmos 2181 Rocket 4.2 03:01:18 10° NNW 03:07:37 62° W 03:13:57 10° S
Cosmos 1763 Rocket 3.4 03:03:46 13° SSW 03:08:18 85° WNW 03:13:26 10° NNE
ADEOS II 2.1 03:04:35 10° NNE 03:09:52 79° WNW 03:15:03 10° SSW
Cosmos 1697 Rocket 2.9 03:04:56 11° SSW 03:10:21 70° ESE 03:16:00 10° NNE
STARLINK-1231 3.7 03:07:10 10° WNW 03:11:13 53° SW 03:15:14 10° SE
STARLINK-1212 4.2 03:09:14 10° W 03:11:34 19° SW 03:13:54 10° S
STARLINK-1105 4.2 03:09:44 10° W 03:12:02 19° SW 03:14:20 10° S
STARLINK-1247 4.3 03:10:39 10° W 03:12:58 19° SW 03:15:16 10° S
STARLINK-1227 4.3 03:11:07 10° W 03:13:24 19° SW 03:15:39 10° S
STARLINK-1246 4.1 03:09:23 10° WNW 03:13:31 64° NNE 03:17:38 10° ESE
STARLINK-1226 4.3 03:11:59 10° W 03:14:16 19° SW 03:16:32 10° S
STARLINK-1215 4.3 03:12:57 10° W 03:15:12 18° SW 03:17:27 10° S
STARLINK-52 3.5 03:12:10 10° W 03:15:20 57° NNW 03:18:30 10° ENE
STARLINK-1232 3.8 03:12:10 10° WNW 03:16:11 49° SW 03:20:10 10° SE
CZ-2C R/B 4.3 03:13:10 10° NNE 03:16:31 31° E 03:19:52 10° SSE
Resurs 1-4 Rocket 3.2 03:12:10 10° N 03:16:45 31° WNW 03:21:16 10° WSW
STARLINK-1217 4.3 03:14:45 10° W 03:16:57 18° SW 03:19:09 10° S
STARLINK-1229 4.4 03:15:41 10° W 03:17:53 18° SW 03:20:03 10° S
STARLINK-1224 4.0 03:14:21 10° WNW 03:18:30 67° NNE 03:22:38 10° ESE
STARLINK-1270 4.4 03:16:34 10° W 03:18:44 17° SW 03:20:53 10° S
Cosmos 1758 Rocket 4.2 03:16:32 13° SW 03:20:08 39° WNW 03:24:15 10° N
STARLINK-1189 4.4 03:18:27 10° W 03:20:34 17° SW 03:22:39 10° S
STARLINK-1208 3.9 03:17:08 10° WNW 03:21:07 46° SW 03:25:05 10° SE
ATLAS 2AS CENTAUR R/B 4.3 03:13:59 10° W 03:21:09 34° NNW 03:28:08 10° NE
ARIANE 5 R/B 2.6 03:16:18 10° NNE 03:21:25 85° ESE 03:26:27 10° SSW
STARLINK-1188 4.5 03:19:22 10° W 03:21:26 16° SW 03:23:31 10° S
H-2A R/B 2.2 03:17:21 10° SSE 03:21:40 82° ENE 03:26:06 10° NNW
BREEZE-M R/B 2.1 03:18:33 10° WSW 03:22:29 87° SSE 03:25:02 10° ENE
Starlink 7 placeholder 4.2 03:21:06 10° WNW 03:22:44 21° N 03:24:24 10° NE
STARLINK-1225 4.0 03:19:21 10° WNW 03:23:30 70° NNE 03:27:38 10° ESE
STARLINK-1271 3.9 03:22:09 10° WNW 03:26:05 43° SW 03:30:01 10° SE
BREEZE-M DEB (TANK) 2.1 03:24:53 10° W 03:26:57 26° SSW 03:28:52 10° SSE
Spot 4 Rocket 4.3 03:22:09 10° NNE 03:27:18 71° ESE 03:32:26 10° S
Lacrosse 4 Rocket 1.4 03:23:53 10° NW 03:28:15 81° WSW 03:32:28 10° SSE
STARLINK-1230 3.9 03:24:19 10° WNW 03:28:28 74° NNE 03:32:37 10° ESE
Meteor 1-27 4.2 03:23:56 10° NNW 03:29:33 86° W 03:35:06 10° S
Cosmos 1898 Rocket 4.2 03:25:06 10° NW 03:29:55 35° WSW 03:34:41 10° SSW
USA 129 3.8 03:29:18 10° NE 03:30:57 20° E 03:32:16 10° SSE
STARLINK-1154 4.0 03:27:10 10° WNW 03:31:03 40° SW 03:34:56 10° SSE
Cosmos 2154 Rocket 4.4 03:25:07 10° S 03:31:20 66° E 03:37:32 10° NNE
SJ 16-02 2.6 03:28:25 10° NW 03:31:57 23° W 03:35:27 10° SSW
Cosmos 2298 Rocket 4.3 03:27:01 10° NNW 03:32:21 76° ENE 03:37:40 10° SSE
STARLINK-1243 3.8 03:29:18 10° WNW 03:33:28 77° NNE 03:37:37 10° ESE
IDEFIX/ARIANE 42P 3.1 03:30:03 10° NNE 03:35:17 61° ESE 03:40:29 10° S
Cosmos 1656 4.2 03:29:51 10° SW 03:35:20 49° NW 03:40:49 10° NNE
STARLINK-1197 4.1 03:32:10 10° WNW 03:36:00 37° SW 03:39:49 10° SSE
Cosmos 1953 Rocket 4.0 03:32:05 10° SSW 03:36:24 47° WNW 03:40:43 10° N
STARLINK-1236 3.8 03:34:17 10° WNW 03:38:27 81° NNE 03:42:36 10° ESE
Cosmos 1570 Rocket 4.1 03:33:56 10° SSW 03:39:16 75° WNW 03:44:36 10° NNE
Cosmos 1937 Rocket 4.0 03:35:17 10° NW 03:40:07 38° WSW 03:44:57 10° S
Cosmos 2285 Rocket 4.3 03:34:04 10° NNW 03:40:10 49° WSW 03:46:12 10° S
STARLINK-1198 4.2 03:37:09 10° WNW 03:40:55 34° SW 03:44:41 10° SSE
CZ-4C R/B 2.2 03:36:09 10° SW 03:41:13 88° SE 03:47:20 10° NE
Cosmos 2208 Rocket 4.1 03:36:59 10° SSW 03:42:14 83° WNW 03:47:35 10° NNE
Cosmos 1842 Rocket 3.6 03:38:28 10° NNW 03:42:58 82° W 03:47:27 10° S
Cosmos 2369 3.8 03:38:22 10° SW 03:44:00 74° WNW 03:49:42 10° NNE
Iridium 2 3.7 03:42:04 10° NNW 03:45:47 60° W 03:49:28 10° S
STARLINK-1199 4.3 03:42:12 10° WNW 03:45:55 32° SW 03:49:36 10° SSE
STARLINK-60 4.5 03:43:39 10° WNW 03:46:39 35° N 03:49:39 10° ENE
Cosmos 2360 4.3 03:41:19 10° SSW 03:47:01 89° WNW 03:52:45 10° NNE
Uosat 12 SS-18 rocket 4.0 03:43:18 10° NW 03:47:34 68° SW 03:52:03 10° SSE
STARLINK-1269 3.7 03:44:14 10° WNW 03:48:24 90° NNE 03:52:32 10° ESE
STARLINK-1210 4.4 03:47:13 10° WNW 03:50:50 29° SW 03:54:27 10° SSE
